Time,TemperatureF,DewpointF,PressureIn,WindDirection,WindDirectionDegrees,WindSpeedMPH,WindSpeedGustMPH,Humidity,HourlyPrecipIn,Conditions,Clouds,dailyrainin,SolarRadiationWatts/m^2,SoftwareType,DateUTC
2013-06-22 13:51:00,84.3,67.9,30.19,East,90,0.0,1.0,58,0.00,,CLR,0.00,728.00,VWS V14.00,2013-06-22 17:51:00,
2013-06-22 13:54:00,84.3,67.4,30.19,East,83,0.0,1.0,57,0.00,,CLR,0.00,1202.00,VWS V14.00,2013-06-22 17:54:00,
2013-06-22 13:55:00,84.3,67.4,30.19,East,83,0.0,1.0,57,0.00,,CLR,0.00,1202.00,VWS V14.00,2013-06-22 17:55:00,
2013-06-22 14:00:00,84.3,67.9,30.20,South,188,0.0,1.0,58,0.00,,CLR,0.00,450.00,VWS V14.00,2013-06-22 18:00:00,
2013-06-22 14:05:00,84.9,69.0,30.20,ENE,66,0.0,1.0,59,0.00,,CLR,0.00,450.00,VWS V14.00,2013-06-22 18:05:00,
2013-06-22 14:10:00,85.1,67.1,30.20,SSE,155,0.0,1.0,55,0.00,,CLR,0.00,563.00,VWS V14.00,2013-06-22 18:10:00,
2013-06-22 14:15:00,85.1,68.2,30.19,ENE,72,0.0,0.0,57,0.00,,CLR,0.00,514.00,VWS V14.00,2013-06-22 18:15:00,
2013-06-22 14:20:00,84.9,67.5,30.19,SE,130,0.0,2.0,56,0.00,,CLR,0.00,384.00,VWS V14.00,2013-06-22 18:20:00,
2013-06-22 14:25:00,85.1,69.7,30.19,South,179,0.0,1.0,60,0.00,,CLR,0.00,384.00,VWS V14.00,2013-06-22 18:25:00,
2013-06-22 14:30:00,85.1,67.7,30.18,ENE,61,0.0,1.0,56,0.00,,CLR,0.00,387.00,VWS V14.00,2013-06-22 18:30:00,
2013-06-22 14:35:00,85.3,68.3,30.18,SW,223,0.0,1.0,57,0.00,,CLR,0.00,343.00,VWS V14.00,2013-06-22 18:35:00,
2013-06-22 14:40:00,85.7,69.7,30.18,SW,223,0.0,1.0,59,0.00,,CLR,0.00,1100.00,VWS V14.00,2013-06-22 18:40:00,
2013-06-22 14:45:00,86.5,69.5,30.17,NE,37,2.0,3.0,57,0.00,,CLR,0.00,1054.00,VWS V14.00,2013-06-22 18:45:00,
2013-06-22 14:50:00,87.0,67.8,30.17,NE,41,0.0,3.0,53,0.00,,CLR,0.00,1050.00,VWS V14.00,2013-06-22 18:50:00,
2013-06-22 14:55:00,87.2,67.4,30.17,NE,35,0.0,2.0,52,0.00,,CLR,0.00,1043.00,VWS V14.00,2013-06-22 18:55:00,
2013-06-22 15:00:00,88.0,69.3,30.17,NE,51,0.0,2.0,54,0.00,,CLR,0.00,1031.00,VWS V14.00,2013-06-22 19:00:00,
2013-06-22 15:05:00,88.4,68.0,30.17,SE,127,0.0,5.0,51,0.00,,SCT050,0.00,333.00,VWS V14.00,2013-06-22 19:05:00,
2013-06-22 15:10:00,88.4,67.4,30.17,East,93,0.0,5.0,50,0.00,,SCT050,0.00,289.00,VWS V14.00,2013-06-22 19:10:00,
2013-06-22 15:15:00,88.0,67.6,30.16,ENE,66,0.0,2.0,51,0.00,,SCT050,0.00,368.00,VWS V14.00,2013-06-22 19:15:00,
2013-06-22 15:20:00,87.8,68.6,30.16,NE,45,0.0,2.0,53,0.00,,SCT050,0.00,941.00,VWS V14.00,2013-06-22 19:20:00,
2013-06-22 15:25:00,87.8,67.4,30.16,NE,40,0.0,2.0,51,0.00,,SCT050,0.00,876.00,VWS V14.00,2013-06-22 19:25:00,
2013-06-22 15:30:00,88.0,68.2,30.15,WNW,298,0.0,2.0,52,0.00,,SCT050,0.00,866.00,VWS V14.00,2013-06-22 19:30:00,
2013-06-22 15:35:00,88.6,68.7,30.15,ESE,102,2.0,2.0,52,0.00,,SCT050,0.00,834.00,VWS V14.00,2013-06-22 19:35:00,
2013-06-22 15:40:00,88.8,67.8,30.15,ESE,107,0.0,2.0,50,0.00,,SCT050,0.00,834.00,VWS V14.00,2013-06-22 19:40:00,
2013-06-22 15:45:00,88.8,68.4,30.14,NNE,18,0.0,2.0,51,0.00,,SCT050,0.00,832.00,VWS V14.00,2013-06-22 19:45:00,
2013-06-22 15:50:00,89.0,68.0,30.14,NNE,13,0.0,3.0,50,0.00,,SCT050,0.00,836.00,VWS V14.00,2013-06-22 19:50:00,
2013-06-22 15:55:00,89.5,67.8,30.14,North,356,0.0,1.0,49,0.00,,SCT050,0.00,839.00,VWS V14.00,2013-06-22 19:55:00,
2013-06-22 16:00:00,89.7,69.2,30.13,NNE,23,2.0,2.0,51,0.00,,SCT050,0.00,850.00,VWS V14.00,2013-06-22 20:00:00,
2013-06-22 16:05:00,89.9,67.0,30.13,NNW,333,0.0,1.0,47,0.00,,BKN070,0.00,855.00,VWS V14.00,2013-06-22 20:05:00,
2013-06-22 16:10:00,90.3,70.3,30.13,NE,38,0.0,3.0,52,0.00,,BKN070,0.00,892.00,VWS V14.00,2013-06-22 20:10:00,
2013-06-22 16:15:00,90.3,68.6,30.13,NE,38,0.0,1.0,49,0.00,,BKN070,0.00,880.00,VWS V14.00,2013-06-22 20:15:00,
2013-06-22 16:20:00,90.5,68.2,30.13,WNW,295,2.0,3.0,48,0.00,,BKN070,0.00,878.00,VWS V14.00,2013-06-22 20:20:00,
2013-06-22 16:25:00,90.5,68.8,30.13,WNW,294,0.0,2.0,49,0.00,,BKN070,0.00,860.00,VWS V14.00,2013-06-22 20:25:00,
2013-06-22 16:30:00,90.3,67.3,30.13,North,10,0.0,2.0,47,0.00,,BKN070,0.00,771.00,VWS V14.00,2013-06-22 20:30:00,
2013-06-22 17:38:00,90.3,69.2,30.12,SSW,212,1.0,6.0,50,0.00,,BKN070,0.00,540.00,VWS V14.00,2013-06-22 21:38:00,
2013-06-22 17:43:00,89.9,69.4,30.12,SSW,206,1.0,6.0,51,0.00,,CLR,0.00,160.00,VWS V14.00,2013-06-22 21:43:00,
2013-06-22 17:48:00,89.3,69.4,30.12,SW,215,2.0,6.0,52,0.00,,CLR,0.00,114.00,VWS V14.00,2013-06-22 21:48:00,
2013-06-22 17:53:00,88.6,69.3,30.12,SSW,208,0.0,2.0,53,0.00,,CLR,0.00,158.00,VWS V14.00,2013-06-22 21:53:00,
2013-06-22 17:58:00,87.8,69.6,30.12,South,179,0.0,5.0,55,0.00,,CLR,0.00,137.00,VWS V14.00,2013-06-22 21:58:00,
2013-06-22 18:03:00,87.2,69.6,30.12,ENE,71,0.0,3.0,56,0.00,,SCT050,0.00,118.00,VWS V14.00,2013-06-22 22:03:00,
2013-06-22 18:08:00,86.7,70.2,30.12,SE,145,0.0,3.0,58,0.00,,SCT050,0.00,128.00,VWS V14.00,2013-06-22 22:08:00,
2013-06-22 18:13:00,86.3,69.8,30.12,WSW,239,5.0,5.0,58,0.00,,SCT050,0.00,134.00,VWS V14.00,2013-06-22 22:13:00,
2013-06-22 18:18:00,86.1,70.1,30.11,South,169,0.0,6.0,59,0.00,,SCT050,0.00,181.00,VWS V14.00,2013-06-22 22:18:00,
2013-06-22 18:23:00,85.7,69.7,30.11,SSE,150,0.0,3.0,59,0.00,,SCT050,0.00,109.00,VWS V14.00,2013-06-22 22:23:00,
2013-06-22 18:28:00,85.1,69.7,30.11,East,83,0.0,3.0,60,0.00,,SCT050,0.00,72.00,VWS V14.00,2013-06-22 22:28:00,
2013-06-22 18:33:00,84.7,69.8,30.12,SE,136,2.0,5.0,61,0.00,,SCT050,0.00,58.00,VWS V14.00,2013-06-22 22:33:00,
2013-06-22 18:38:00,84.3,69.4,30.12,ESE,121,1.0,5.0,61,0.00,,SCT050,0.00,63.00,VWS V14.00,2013-06-22 22:38:00,
2013-06-22 18:43:00,84.0,69.6,30.12,SE,136,1.0,1.0,62,0.00,,SCT050,0.00,58.00,VWS V14.00,2013-06-22 22:43:00,
2013-06-22 18:48:00,83.8,69.9,30.12,WSW,237,0.0,4.0,63,0.00,,SCT050,0.00,56.00,VWS V14.00,2013-06-22 22:48:00,
2013-06-22 18:53:00,83.6,69.7,30.12,WSW,237,0.0,1.0,63,0.00,,SCT050,0.00,77.00,VWS V14.00,2013-06-22 22:53:00,
2013-06-22 18:58:00,83.4,69.5,30.12,SW,236,0.0,1.0,63,0.00,,SCT050,0.00,99.00,VWS V14.00,2013-06-22 22:58:00,
2013-06-22 19:03:00,83.2,68.4,30.12,SW,236,0.0,0.0,61,0.00,,SCT095,0.00,60.00,VWS V14.00,2013-06-22 23:03:00,
2013-06-22 19:08:00,83.0,68.2,30.12,SSW,198,0.0,1.0,61,0.00,,SCT095,0.00,62.00,VWS V14.00,2013-06-22 23:08:00,
2013-06-22 19:13:00,82.8,68.5,30.12,South,185,0.0,0.0,62,0.00,,SCT095,0.00,56.00,VWS V14.00,2013-06-22 23:13:00,
2013-06-22 19:18:00,82.8,70.3,30.12,South,185,0.0,0.0,66,0.00,,SCT095,0.00,65.00,VWS V14.00,2013-06-22 23:18:00,
2013-06-22 19:23:00,82.8,68.9,30.12,South,185,0.0,0.0,63,0.00,,SCT095,0.00,63.00,VWS V14.00,2013-06-22 23:23:00,
2013-06-22 19:28:00,82.6,69.2,30.12,South,185,0.0,0.0,64,0.00,,SCT095,0.00,67.00,VWS V14.00,2013-06-22 23:28:00,
2013-06-22 19:33:00,82.4,69.5,30.12,South,185,0.0,0.0,65,0.00,,SCT095,0.00,65.00,VWS V14.00,2013-06-22 23:33:00,
2013-06-22 19:38:00,82.2,69.3,30.12,South,185,0.0,0.0,65,0.00,,SCT095,0.00,56.00,VWS V14.00,2013-06-22 23:38:00,
2013-06-22 19:43:00,82.2,69.3,30.12,South,185,0.0,0.0,65,0.00,,SCT095,0.00,44.00,VWS V14.00,2013-06-22 23:43:00,
2013-06-22 19:48:00,82.0,69.1,30.13,South,185,0.0,0.0,65,0.00,,SCT095,0.00,32.00,VWS V14.00,2013-06-22 23:48:00,
2013-06-22 19:53:00,82.0,69.1,30.13,South,185,0.0,0.0,65,0.00,,SCT095,0.00,26.00,VWS V14.00,2013-06-22 23:53:00,
2013-06-22 19:58:00,81.8,69.3,30.13,South,185,0.0,1.0,66,0.00,,SCT095,0.00,26.00,VWS V14.00,2013-06-22 23:58:00,
2013-06-22 20:03:00,81.6,69.2,30.12,South,185,0.0,0.0,66,0.00,,FEW075,0.00,26.00,VWS V14.00,2013-06-23 00:03:00,
2013-06-22 20:08:00,81.4,69.4,30.12,South,185,0.0,0.0,67,0.00,,FEW075,0.00,23.00,VWS V14.00,2013-06-23 00:08:00,
2013-06-22 20:13:00,81.2,69.6,30.12,South,185,0.0,0.0,68,0.00,,FEW075,0.00,21.00,VWS V14.00,2013-06-23 00:13:00,
2013-06-22 20:18:00,81.1,70.0,30.12,South,185,0.0,0.0,69,0.00,,FEW075,0.00,16.00,VWS V14.00,2013-06-23 00:18:00,
2013-06-22 20:23:00,80.7,69.2,30.12,South,185,0.0,0.0,68,0.00,,FEW075,0.00,12.00,VWS V14.00,2013-06-23 00:23:00,
2013-06-22 20:28:00,80.5,69.4,30.12,South,185,0.0,0.0,69,0.00,,FEW075,0.00,9.00,VWS V14.00,2013-06-23 00:28:00,
2013-06-22 20:33:00,80.3,69.6,30.12,South,185,0.0,0.0,70,0.00,,FEW075,0.00,7.00,VWS V14.00,2013-06-23 00:33:00,
2013-06-22 20:38:00,80.1,69.4,30.12,South,185,0.0,0.0,70,0.00,,FEW075,0.00,5.00,VWS V14.00,2013-06-23 00:38:00,
2013-06-22 20:43:00,79.8,69.6,30.12,South,185,0.0,0.0,71,0.00,,FEW075,0.00,0.00,VWS V14.00,2013-06-23 00:43:00,
2013-06-22 20:48:00,79.6,69.4,30.13,South,185,0.0,0.0,71,0.00,,FEW075,0.00,0.00,VWS V14.00,2013-06-23 00:48:00,
2013-06-22 20:53:00,79.4,69.6,30.13,South,185,0.0,0.0,72,0.00,,FEW075,0.00,0.00,VWS V14.00,2013-06-23 00:53:00,
2013-06-22 20:58:00,79.2,69.4,30.13,South,185,0.0,0.0,72,0.00,,FEW075,0.00,0.00,VWS V14.00,2013-06-23 00:58:00,
2013-06-22 21:03:00,78.8,69.4,30.13,South,185,0.0,0.0,73,0.00,,BKN065,0.00,0.00,VWS V14.00,2013-06-23 01:03:00,
2013-06-22 21:08:00,78.6,69.6,30.13,South,185,0.0,0.0,74,0.00,,BKN065,0.00,0.00,VWS V14.00,2013-06-23 01:08:00,
2013-06-22 21:13:00,78.5,69.5,30.13,South,185,0.0,0.0,74,0.00,,BKN065,0.00,0.00,VWS V14.00,2013-06-23 01:13:00,
2013-06-22 21:18:00,78.3,69.3,30.14,South,185,0.0,0.0,74,0.00,,BKN065,0.00,0.00,VWS V14.00,2013-06-23 01:18:00,
2013-06-22 21:23:00,78.1,69.5,30.14,South,185,0.0,0.0,75,0.00,,BKN047,0.00,0.00,VWS V14.00,2013-06-23 01:23:00,
2013-06-22 21:28:00,78.1,69.5,30.14,South,185,0.0,0.0,75,0.00,,BKN047,0.00,0.00,VWS V14.00,2013-06-23 01:28:00,
2013-06-22 21:33:00,77.9,69.3,30.13,South,185,0.0,0.0,75,0.00,,BKN047,0.00,0.00,VWS V14.00,2013-06-23 01:33:00,
2013-06-22 21:38:00,77.7,69.5,30.13,South,185,0.0,0.0,76,0.00,,BKN047,0.00,0.00,VWS V14.00,2013-06-23 01:38:00,
2013-06-22 21:43:00,77.7,69.5,30.13,South,185,0.0,0.0,76,0.00,,BKN047,0.00,0.00,VWS V14.00,2013-06-23 01:43:00,
2013-06-22 21:48:00,77.4,69.2,30.15,South,185,0.0,0.0,76,0.00,,BKN047,0.00,0.00,VWS V14.00,2013-06-23 01:48:00,
2013-06-22 21:53:00,77.4,69.2,30.15,South,185,0.0,1.0,76,0.00,,BKN047,0.00,0.00,VWS V14.00,2013-06-23 01:53:00,
2013-06-22 21:58:00,77.2,69.1,30.15,South,185,0.0,1.0,76,0.00,,BKN047,0.00,0.00,VWS V14.00,2013-06-23 01:58:00,
2013-06-22 22:03:00,77.0,68.9,30.15,South,185,0.0,0.0,76,0.00,,,0.00,0.00,VWS V14.00,2013-06-23 02:03:00,
2013-06-22 22:08:00,77.0,68.9,30.15,South,185,0.0,0.0,76,0.00,,,0.00,0.00,VWS V14.00,2013-06-23 02:08:00,
2013-06-22 22:13:00,77.0,68.9,30.15,South,185,0.0,0.0,76,0.00,,,0.00,0.00,VWS V14.00,2013-06-23 02:13:00,
2013-06-22 22:18:00,76.8,68.7,30.16,South,185,0.0,0.0,76,0.00,,,0.00,0.00,VWS V14.00,2013-06-23 02:18:00,
2013-06-22 22:23:00,76.8,68.7,30.16,South,185,0.0,0.0,76,0.00,,,0.00,0.00,VWS V14.00,2013-06-23 02:23:00,
2013-06-22 22:28:00,76.7,68.6,30.16,South,185,0.0,0.0,76,0.00,,,0.00,0.00,VWS V14.00,2013-06-23 02:28:00,
2013-06-22 22:33:00,76.7,68.6,30.16,SSW,203,0.0,2.0,76,0.00,,,0.00,0.00,VWS V14.00,2013-06-23 02:33:00,
2013-06-22 22:38:00,76.7,68.6,30.16,SSW,203,0.0,2.0,76,0.00,,,0.00,0.00,VWS V14.00,2013-06-23 02:38:00,
2013-06-22 22:43:00,76.7,68.6,30.16,SSW,206,0.0,2.0,76,0.00,,,0.00,0.00,VWS V14.00,2013-06-23 02:43:00,
2013-06-22 22:48:00,76.7,68.6,30.17,SSW,206,0.0,2.0,76,0.00,,,0.00,0.00,VWS V14.00,2013-06-23 02:48:00,
2013-06-22 22:53:00,76.7,68.9,30.17,SSW,208,0.0,2.0,77,0.00,,CLR,0.00,0.00,VWS V14.00,2013-06-23 02:53:00,
2013-06-22 22:58:00,76.5,68.8,30.17,SW,232,2.0,3.0,77,0.00,,CLR,0.00,0.00,VWS V14.00,2013-06-23 02:58:00,
2013-06-22 23:03:00,76.5,68.8,30.17,SW,224,0.0,1.0,77,0.00,,CLR,0.00,0.00,VWS V14.00,2013-06-23 03:03:00,
2013-06-22 23:08:00,76.3,68.6,30.17,SW,233,0.0,2.0,77,0.00,,CLR,0.00,0.00,VWS V14.00,2013-06-23 03:08:00,
2013-06-22 23:13:00,76.3,68.9,30.17,SW,233,0.0,0.0,78,0.00,,CLR,0.00,0.00,VWS V14.00,2013-06-23 03:13:00,
2013-06-22 23:18:00,76.3,68.9,30.17,SW,226,0.0,1.0,78,0.00,,CLR,0.00,0.00,VWS V14.00,2013-06-23 03:18:00,
2013-06-22 23:23:00,76.1,68.8,30.17,SW,223,0.0,1.0,78,0.00,,CLR,0.00,0.00,VWS V14.00,2013-06-23 03:23:00,
2013-06-22 23:28:00,76.0,69.0,30.17,SW,229,1.0,2.0,79,0.00,,CLR,0.00,0.00,VWS V14.00,2013-06-23 03:28:00,
2013-06-22 23:33:00,76.0,69.0,30.17,SW,229,0.0,0.0,79,0.00,,CLR,0.00,0.00,VWS V14.00,2013-06-23 03:33:00,
2013-06-22 23:38:00,75.8,68.8,30.17,SW,229,0.0,0.0,79,0.00,,CLR,0.00,0.00,VWS V14.00,2013-06-23 03:38:00,
2013-06-22 23:43:00,75.8,69.2,30.17,SW,229,0.0,0.0,80,0.00,,CLR,0.00,0.00,VWS V14.00,2013-06-23 03:43:00,
2013-06-22 23:48:00,75.6,69.0,30.17,SW,229,0.0,2.0,80,0.00,,CLR,0.00,0.00,VWS V14.00,2013-06-23 03:48:00,
2013-06-22 23:53:00,75.4,68.8,30.17,SW,229,0.0,0.0,80,0.00,,CLR,0.00,0.00,VWS V14.00,2013-06-23 03:53:00,
2013-06-22 23:58:00,75.3,68.7,30.17,SW,229,0.0,0.0,80,0.00,,CLR,0.00,0.00,VWS V14.00,2013-06-23 03:58:00,